Wind_Speed
13 13 13 12 12 12 12 12 12 12 11 11 12 13 12 12 12 12 11 11 11 10 10 10 10 9 8 8 7 7 7 7 8 8 9 9 10 10 10 10 11 11 10 10 10 10 11 10 11 11 11 11 11 11 11 11 11 12 12 12 12 12 13 13 14 14 15 15 15 14 14 14 14 14 14 14 15 15 16 16 16 16 16 16 16
15 14 14 13 13 13 12 12 12 12 11 11 12 12 12 11 11 11 10 10 10 9 9 9 9 8 8 7 7 7 7 7 7 7 8 8 10 11 11 11 11 10 10 10 10 11 11 11 12 12 12 12 12 12 12 12 12 13 13 13 13 13 13 14 14 14 14 14 14 14 13 13 13 14 14 14 14 14 14 14 14 14 14 14 14
15 14 14 13 13 12 12 11 11 11 10 11 12 11 11 10 10 10 9 9 8 8 8 7 7 7 6 6 5 6 6 7 8 8 8 8 9 10 10 11 11 11 11 11 11 11 11 11 11 12 12 12 13 13 13 13 13 13 13 13 13 13 13 13 13 13 13 12 12 12 12 12 13 13 13 13 13 13 13 13 13 13 13 13 13
14 14 13 13 12 11 11 10 10 10 10 10 11 11 11 11 10 9 9 8 8 7 7 6 6 6 5 5 4 5 6 7 8 8 8 8 8 8 9 10 11 12 12 12 12 11 11 11 11 11 11 11 12 12 12 12 13 13 13 13 13 13 12 12 12 11 11 11 11 11 11 11 11 12 12 12 12 12 11 12 12 12 12 12 12
14 14 14 13 13 11 10 10 9 9 9 10 11 11 12 11 10 10 9 8 8 9 8 8 7 7 6 5 5 5 5 7 8 9 9 9 8 7 8 9 11 12 12 12 12 12 11 11 11 10 10 11 11 11 12 12 12 12 12 12 12 12 11 11 10 10 10 10 10 10 10 10 10 10 11 11 11 11 11 11 11 11 11 11 11
13 14 14 14 13 12 10 9 9 9 9 10 11 12 13 12 11 10 9 10 11 12 11 10 9 9 9 8 7 7 7 7 8 9 10 9 8 8 8 9 10 11 11 11 11 12 12 11 11 11 11 10 10 10 11 11 11 11 11 11 11 11 10 10 10 10 10 10 10 9 9 9 10 10 10 10 10 10 10 10 10 10 10 9 9
13 13 13 13 13 12 11 10 9 10 10 11 11 12 13 12 12 11 11 13 14 14 14 12 12 12 11 10 9 9 9 9 9 10 10 10 9 9 8 9 9 10 10 10 11 11 12 11 12 12 12 12 11 11 11 11 11 11 11 10 10 10 10 9 9 9 9 9 9 9 9 8 9 9 9 9 9 9 9 9 8 8 8 8 9
13 13 12 13 13 12 12 11 10 11 10 11 12 12 13 13 12 13 14 16 17 16 16 15 15 15 14 13 12 12 11 11 11 11 11 10 10 9 9 9 9 9 9 10 10 10 11 12 12 13 13 13 13 12 11 11 11 10 10 10 9 9 9 9 9 9 9 9 9 9 8 8 8 8 8 8 8 8 8 8 8 8 8 8 8
12 12 12 12 12 12 12 12 11 11 11 11 11 12 14 14 13 14 16 18 18 17 17 17 18 18 18 16 15 15 14 13 13 13 12 12 11 11 10 10 10 10 10 10 10 11 11 12 12 13 13 13 13 12 11 10 10 9 9 9 9 9 9 9 9 9 9 9 9 9 8 8 8 8 8 8 8 8 8 8 7 7 8 8 8
11 11 12 11 12 12 12 12 12 12 11 11 12 13 14 14 14 16 17 17 17 17 17 18 19 20 20 19 18 17 17 16 15 15 14 13 13 12 12 11 11 11 10 11 11 11 11 12 12 13 13 12 12 11 11 10 10 9 9 9 9 9 9 9 9 9 9 9 9 9 9 9 9 9 9 9 8 8 8 8 7 7 7 7 7
11 11 11 11 11 12 13 13 12 12 12 12 12 12 13 14 15 16 16 16 16 16 17 18 19 20 20 20 19 18 18 18 17 17 16 15 15 14 13 12 12 11 11 11 11 11 11 12 12 12 12 12 12 11 11 10 10 10 10 9 9 9 9 9 9 9 10 10 10 10 10 9 9 9 9 9 9 9 8 8 7 7 7 7 7
10 11 11 12 12 13 13 13 12 12 13 13 13 12 12 14 14 15 16 16 15 16 17 18 19 20 20 20 19 19 18 18 18 17 17 16 16 15 14 13 12 11 11 11 11 11 11 11 11 11 11 11 11 11 11 10 10 10 9 9 9 9 9 9 9 9 9 9 9 9 9 9 9 9 9 9 9 8 8 7 7 7 7 7 7
10 11 12 12 13 13 13 13 12 12 12 13 14 14 14 14 14 14 15 15 15 15 16 17 18 19 19 19 19 18 18 18 17 17 17 16 16 15 15 14 13 12 12 12 11 11 11 11 11 11 11 11 11 10 10 10 9 9 8 8 8 8 8 9 9 9 9 9 8 8 8 8 8 8 8 8 8 8 7 7 7 7 7 7 8
11 12 13 14 14 14 14 14 13 13 13 13 13 14 14 14 13 13 14 15 15 14 14 15 17 17 18 18 18 18 18 18 18 17 17 16 16 16 15 15 14 14 13 13 12 12 12 12 11 11 11 11 10 10 9 9 9 8 8 8 8 8 8 8 9 9 9 9 8 8 8 8 8 8 8 9 9 9 9 9 9 9 9 10 10
11 12 13 14 14 14 15 14 13 13 13 13 13 13 13 14 13 13 14 14 14 14 13 14 15 16 17 17 17 17 17 18 18 18 18 17 16 16 16 16 16 16 15 15 14 14 13 13 13 12 12 12 11 11 10 10 10 9 9 9 9 9 9 9 9 9 9 9 9 9 9 10 10 10 10 10 11 10 11 11 11 11 11 11 11
10 11 13 13 14 14 14 14 13 13 13 13 13 13 13 14 14 13 13 13 13 13 13 13 13 14 15 15 16 16 16 17 17 18 18 18 17 16 16 17 17 17 16 16 16 15 15 15 15 14 14 13 13 13 13 12 12 11 11 11 11 11 11 10 10 10 10 10 11 11 11 11 11 11 11 11 11 10 10 11 11 11 11 11 11
10 11 11 12 13 13 13 13 12 12 12 12 13 13 13 14 14 13 13 12 12 13 13 12 11 12 13 13 13 14 15 15 16 16 16 17 17 16 15 16 16 16 16 16 15 15 15 15 15 15 14 14 14 13 13 13 13 13 12 12 12 12 12 12 12 12 12 12 12 13 13 13 13 13 12 12 11 11 12 12 12 12 12 12 13
10 10 10 11 12 12 12 12 12 11 11 11 12 13 13 13 13 13 12 12 12 12 12 12 11 10 11 11 12 12 12 13 14 15 15 15 15 15 15 14 15 15 15 15 14 14 14 14 15 15 14 14 13 13 13 13 13 13 12 12 12 12 12 12 12 12 12 13 13 14 14 14 13 13 13 13 13 13 14 14 14 14 14 14 14
10 10 10 10 11 12 12 11 11 11 11 11 11 11 12 12 12 12 13 12 11 11 11 11 10 10 10 10 10 10 10 11 11 12 12 13 13 13 13 13 14 14 14 13 13 13 13 13 14 14 13 13 12 12 12 12 12 12 11 11 11 11 12 12 12 12 13 14 14 14 13 13 13 13 13 14 14 15 15 15 16 16 16 16 16
10 10 10 10 10 11 12 11 11 11 11 10 10 10 10 11 11 11 12 12 12 11 11 11 10 9 10 10 10 9 9 9 9 9 9 10 11 11 11 11 12 12 12 12 12 12 12 12 12 12 12 11 11 11 11 11 11 11 11 11 11 12 12 12 13 13 13 13 13 13 13 13 13 13 14 14 15 15 16 16 16 16 16 16 16
10 10 10 10 10 11 11 11 11 11 11 10 10 10 10 10 10 10 11 12 12 11 11 10 9 9 9 9 9 9 8 7 7 7 7 8 8 8 9 9 9 9 9 9 9 9 10 10 10 10 10 10 9 9 10 10 11 11 11 11 12 12 12 13 13 13 13 12 12 12 13 13 13 13 14 14 15 15 15 15 15 15 15 15 16
11 11 11 11 11 10 11 11 11 11 11 11 11 10 10 9 9 10 11 11 11 11 11 10 9 8 8 8 9 9 8 7 7 6 6 6 6 6 7 6 6 6 6 7 7 7 8 8 8 8 8 8 8 8 9 10 11 11 11 12 12 12 12 12 12 12 12 12 12 12 12 12 13 13 13 14 14 14 14 14 14 14 15 15 15
13 13 13 13 12 11 11 11 12 12 12 12 12 12 11 10 9 9 10 10 10 11 11 10 9 8 8 7 7 8 8 8 7 7 6 6 5 5 5 5 5 4 4 5 6 6 7 7 7 8 8 7 7 8 9 10 11 11 12 12 12 12 12 12 12 12 12 12 12 12 12 12 12 13 13 13 14 14 14 14 14 14 14 15 15
15 14 14 14 13 13 13 13 13 13 13 13 13 13 13 12 11 10 9 10 10 10 11 10 10 9 9 8 7 8 8 9 8 8 7 6 6 5 5 5 4 3 3 4 4 5 6 6 6 7 7 8 8 9 10 11 11 12 12 11 11 11 11 12 12 12 12 12 11 11 12 12 12 13 13 14 14 14 14 14 15 15 16 16 17
14 14 14 14 14 15 15 15 15 15 15 15 15 15 15 14 13 11 10 10 10 10 11 11 11 11 10 10 9 9 9 9 9 8 8 7 6 6 5 5 4 3 2 3 3 4 5 5 6 7 8 9 9 10 11 11 11 11 11 11 11 11 11 11 11 11 11 11 11 11 12 12 13 13 14 14 14 14 14 15 15 16 17 18 19
14 13 13 13 13 15 16 17 18 18 18 19 19 18 18 17 15 14 12 11 10 10 10 11 11 11 10 10 10 10 9 9 8 7 7 6 5 4 4 3 2 2 1 1 2 3 4 5 7 9 9 10 10 10 10 11 11 10 10 10 10 10 10 10 10 10 10 10 11 11 12 13 13 13 14 14 14 15 15 16 16 17 18 19 20
14 13 13 12 12 13 14 15 16 17 17 18 18 18 18 17 17 16 15 13 11 10 9 9 10 10 10 9 9 9 8 8 7 6 5 4 3 3 2 2 1 1 1 2 4 5 6 7 8 9 9 9 9 9 9 9 9 9 9 9 9 9 9 9 9 9 9 10 11 12 12 13 13 13 14 14 15 15 16 17 18 19 20 21 22
15 13 12 11 10 10 11 11 12 13 13 14 14 14 15 15 15 15 15 14 13 11 9 8 8 8 8 8 8 7 7 6 6 5 4 4 3 3 2 2 1 2 3 6 8 8 9 9 8 8 8 8 8 7 7 7 7 7 7 7 7 7 7 7 8 9 10 10 11 12 13 13 14 14 15 15 16 17 18 19 20 21 22 23 23
15 13 12 11 10 9 9 8 8 8 8 8 8 8 9 10 11 11 12 12 12 11 9 8 7 7 7 7 7 6 6 6 5 5 4 4 4 3 2 2 4 5 7 9 10 10 10 9 8 7 6 6 5 5 4 4 4 5 5 6 6 7 7 8 9 10 11 11 12 13 13 14 15 16 17 17 18 19 20 21 22 23 24 24 25
15 13 12 11 10 9 9 8 7 6 5 4 3 3 4 4 5 6 7 8 9 9 9 8 7 6 5 6 5 5 5 5 5 4 4 4 4 3 3 4 5 7 8 9 10 9 9 8 7 6 5 4 3 3 3 3 4 4 5 6 7 8 9 10 11 12 12 13 13 14 15 15 16 17 18 19 20 20 21 22 23 24 26 26 26
16 14 13 11 10 10 9 8 7 6 5 4 4 3 2 1 1 1 2 4 5 6 6 7 7 6 5 5 5 5 5 5 5 5 5 4 4 4 4 5 6 7 9 9 8 8 7 6 6 5 4 4 3 3 4 4 5 6 7 9 10 11 12 13 14 14 14 14 15 16 17 18 19 20 20 21 21 22 23 24 25 26 27 28 29
18 16 14 12 11 11 10 9 8 7 7 6 6 6 5 4 4 3 2 2 2 3 3 3 4 5 5 4 4 5 5 5 5 5 5 5 4 4 5 6 6 7 8 8 8 7 6 6 5 4 4 3 3 4 6 7 8 10 12 13 14 14 15 15 16 16 16 17 17 18 20 21 21 22 22 22 23 23 24 26 27 28 29 30 31
19 17 16 14 13 12 11 10 10 9 9 9 8 8 8 7 6 6 5 4 3 3 3 3 2 1 2 3 3 5 6 6 6 6 5 5 5 5 6 6 6 6 7 7 7 6 6 5 4 4 3 4 5 6 8 9 11 12 14 15 15 16 17 17 18 20 20 19 20 20 20 21 22 23 24 24 25 26 27 28 29 30 31 32 32
20 19 17 16 15 14 13 13 12 11 11 10 10 10 9 9 8 7 7 6 5 5 5 5 4 3 1 0 2 3 6 7 7 6 6 6 6 6 6 6 6 6 6 5 5 5 5 4 3 3 3 4 5 7 8 9 11 12 14 16 17 18 19 20 21 22 23 22 22 22 22 22 23 24 26 27 28 29 30 31 31 32 33 34 34
22 21 19 18 17 16 15 15 14 13 12 11 11 11 10 9 8 8 8 8 7 7 7 6 6 6 5 3 1 1 4 7 8 7 7 6 6 6 6 6 5 5 5 5 4 4 4 3 2 2 3 5 6 8 9 10 12 14 15 18 20 21 22 22 23 24 25 25 25 26 26 26 27 28 29 30 31 32 32 32 34 35 36 36 37
24 22 21 20 18 17 17 17 16 14 13 12 12 11 10 9 8 8 9 8 8 9 9 8 8 8 8 6 4 3 4 6 8 8 7 7 6 6 5 6 6 5 5 5 4 3 2 1 0 2 4 5 8 10 11 11 13 16 17 19 21 22 23 24 24 25 26 28 28 29 30 31 31 32 32 33 33 34 34 34 35 36 38 39 40
25 24 23 21 20 20 19 18 17 15 14 13 12 11 10 9 9 9 10 10 10 10 10 10 10 10 10 8 7 6 6 6 8 9 8 8 7 6 6 6 7 6 6 5 4 2 1 2 3 4 5 7 9 12 14 14 15 17 20 21 22 22 23 24 25 26 27 28 29 30 32 33 34 35 35 36 36 35 36 36 37 38 38 39 41
27 26 25 23 22 22 21 19 18 16 14 13 12 11 10 10 10 11 11 12 12 12 12 12 12 12 12 10 8 8 8 7 8 9 9 8 8 8 8 7 7 7 6 5 3 2 2 4 6 8 10 11 12 15 18 19 19 20 21 22 23 24 24 24 25 26 27 28 29 31 32 34 35 36 36 37 38 39 40 40 39 39 39 40 43
28 27 26 25 24 23 22 20 18 17 14 13 12 12 11 11 12 12 13 14 14 14 13 13 13 14 13 12 10 10 11 9 8 9 10 10 10 9 9 8 8 7 6 4 4 3 2 4 6 8 11 13 15 16 19 21 22 22 23 22 22 23 25 25 26 28 30 30 30 31 33 35 37 37 38 39 41 43 44 44 42 41 42 44 45
29 28 27 26 25 23 22 20 18 16 14 13 13 14 14 13 13 13 14 14 15 15 15 14 14 14 14 14 12 11 12 11 9 9 10 11 11 10 9 8 8 7 6 5 4 3 3 4 6 8 10 13 16 18 20 22 23 24 24 24 23 23 25 26 27 30 32 32 32 33 36 39 39 39 39 39 41 43 46 47 47 47 48 47 45
30 29 28 27 25 23 22 20 18 16 14 14 15 15 15 15 14 13 13 14 14 15 15 15 15 15 15 15 14 12 12 12 11 10 10 10 10 10 9 7 7 6 6 5 4 3 5 6 8 10 11 13 16 19 21 22 23 24 25 25 25 25 25 25 27 32 36 37 37 39 40 41 41 40 40 40 41 44 47 49 50 50 51 49 47
31 30 29 28 26 24 22 20 18 16 15 15 16 16 17 16 14 13 13 14 15 15 15 16 16 16 16 16 15 14 13 13 13 13 12 10 10 10 9 7 7 6 6 6 5 5 6 8 10 12 13 15 18 20 22 23 25 26 26 27 27 26 27 30 32 35 40 44 46 45 42 43 44 44 43 43 43 45 48 51 53 54 54 52 50
31 31 29 28 26 24 22 20 18 16 16 17 17 17 17 16 15 14 14 14 15 15 16 16 16 17 17 17 17 16 15 15 15 14 13 12 12 12 10 8 7 7 7 7 7 8 8 10 12 15 16 17 19 21 23 25 27 28 29 31 30 28 32 38 36 35 40 46 48 46 43 43 46 46 45 46 47 48 49 51 55 59 59 55 52
31 30 28 27 25 24 23 21 19 18 18 18 18 18 18 17 16 15 15 15 15 15 16 16 17 17 17 18 18 17 17 17 16 16 15 14 14 13 11 9 8 8 9 9 9 11 11 12 14 16 19 20 20 22 25 27 29 30 32 37 37 33 35 38 36 37 41 43 45 45 42 42 45 46 45 46 48 50 50 50 54 58 58 55 52
30 29 27 26 25 24 23 21 20 19 19 19 18 18 18 18 17 16 16 15 15 16 16 17 17 17 17 17 17 17 16 16 17 17 17 16 16 14 12 10 10 10 10 11 12 12 14 15 15 17 20 22 23 24 27 29 31 32 35 41 42 37 34 34 36 38 41 42 45 46 43 41 44 46 44 44 46 47 47 47 49 52 52 52 53
28 27 26 25 25 24 23 22 21 20 20 19 19 19 19 19 17 17 17 16 16 16 17 17 17 17 17 17 16 16 16 16 17 18 18 17 17 16 14 12 11 11 12 13 14 15 16 17 17 18 21 24 25 27 29 31 33 34 36 41 44 40 35 36 38 41 42 45 48 50 47 43 45 46 44 42 43 42 41 42 44 47 49 52 54
27 26 26 25 25 25 24 22 21 20 21 21 21 20 21 20 19 18 17 17 17 17 18 18 18 17 17 16 16 17 16 17 18 19 19 18 17 16 14 13 13 13 13 14 16 18 18 18 19 20 22 25 26 27 29 31 32 34 37 41 44 44 42 41 42 43 44 46 49 51 50 46 45 44 42 40 40 39 38 40 42 45 48 50 52
26 26 26 25 25 24 24 23 22 21 22 23 22 22 23 22 20 18 17 17 17 18 19 19 19 19 17 16 16 17 18 18 19 19 19 19 18 16 15 14 15 15 15 17 19 20 20 21 22 23 24 26 28 29 30 32 34 36 39 41 44 45 45 45 45 45 45 46 48 50 49 46 44 42 38 38 39 38 38 40 42 44 47 48 48
26 26 25 25 25 25 24 23 23 23 24 25 24 24 25 24 22 19 18 18 18 18 20 20 20 20 19 17 17 18 19 20 20 20 20 19 18 17 16 16 16 16 18 20 22 22 23 24 25 26 27 29 31 32 34 36 38 40 42 43 44 46 47 46 46 45 45 47 49 50 49 47 47 44 40 40 40 39 39 40 41 43 45 47 47
25 25 25 25 25 25 24 24 24 25 26 26 26 25 26 26 23 20 19 19 18 19 20 21 21 21 20 19 20 20 21 21 21 21 20 19 18 18 18 18 18 18 21 22 23 24 25 27 28 28 30 32 34 35 36 38 40 42 44 44 45 48 49 48 48 47 46 48 51 51 50 48 47 46 44 43 41 40 41 41 42 43 44 45 47
24 24 24 24 24 23 23 23 24 25 25 26 26 26 27 27 24 22 21 19 19 20 22 22 23 23 22 21 22 22 22 22 22 21 20 19 18 19 20 20 19 20 23 24 24 25 27 28 29 30 32 34 35 36 37 38 40 42 44 45 46 48 49 50 51 50 48 48 51 52 50 48 46 45 45 45 43 40 40 40 40 41 43 43 44
Wind_Direction
115 114 112 110 108 106 104 101 100 97 94 92 93 93 92 89 85 81 78 75 73 71 72 75 77 78 79 81 88 93 96 98 94 87 84 86 86 85 87 89 90 92 92 93 93 93 93 92 93 92 92 93 94 95 95 95 93 91 88 85 83 80 78 78 78 78 78 78 79 80 79 78 76 75 73 70 69 68 67 67 67 66 66 65 65
116 114 113 111 109 106 103 100 98 95 90 89 91 92 89 86 83 79 76 74 74 72 72 73 76 77 78 79 84 91 96 99 99 94 88 87 85 82 81 83 85 87 90 91 91 91 91 92 92 92 92 93 94 94 93 92 90 88 87 85 84 82 81 80 80 80 80 80 79 78 78 76 74 72 70 68 67 66 66 65 64 64 63 62 61
116 115 114 113 110 107 105 102 98 94 88 84 85 85 83 80 78 77 75 74 73 73 73 73 75 77 78 77 80 88 94 96 98 98 97 92 85 80 80 83 85 85 86 89 90 91 91 92 93 93 94 95 94 94 93 92 90 89 87 85 84 83 83 82 82 81 80 79 78 76 74 72 70 68 66 65 64 64 64 64 62 62 62 61 60
114 112 112 112 110 107 104 102 98 94 90 85 84 83 81 78 79 79 76 73 70 68 67 67 68 72 74 76 79 86 94 96 95 97 100 98 90 84 83 83 85 87 88 88 88 87 88 89 91 92 93 93 92 93 92 90 88 86 85 85 85 85 84 83 82 81 79 77 75 72 69 67 66 64 65 65 65 65 65 66 65 64 63 61 59
111 109 109 109 109 107 104 101 99 96 92 87 85 87 86 83 81 80 77 74 70 67 65 64 66 70 73 76 83 90 97 98 96 96 99 100 98 95 91 84 82 86 86 84 83 83 83 85 87 89 91 91 90 90 89 88 86 84 84 85 85 84 82 80 78 76 74 71 67 64 63 64 64 64 66 67 67 67 67 67 66 65 63 60 57
107 105 105 105 104 104 103 101 99 96 93 90 89 89 87 86 84 83 81 79 76 73 70 70 71 73 74 77 85 93 97 97 96 95 97 100 102 102 99 90 84 83 79 75 78 81 80 81 84 86 87 88 88 87 87 87 87 87 86 85 83 80 76 73 71 70 69 68 65 63 63 64 66 67 69 70 69 69 68 66 64 62 58 55 53
103 101 100 100 100 99 100 100 99 98 95 94 93 90 88 87 89 90 88 84 81 78 75 74 75 76 77 81 88 94 97 98 97 97 98 100 102 101 99 95 88 84 78 72 72 77 79 78 79 82 85 86 86 86 86 86 86 85 83 79 73 70 68 66 67 69 70 72 71 70 69 69 70 70 69 69 68 66 64 61 59 57 54 52 49
102 100 99 97 96 95 98 102 103 101 96 93 92 90 89 90 92 93 90 85 81 79 77 77 77 78 80 85 91 96 101 103 102 101 100 101 101 99 97 94 90 85 78 74 73 75 77 78 78 79 82 84 85 86 85 83 81 78 73 67 62 61 63 64 67 68 71 72 73 72 70 68 66 63 61 60 59 58 56 54 53 53 51 50 49
104 102 100 98 96 95 100 106 108 105 99 98 96 91 91 94 95 92 86 81 78 77 78 79 79 80 82 86 91 96 100 103 104 103 102 101 99 97 95 91 88 84 78 75 76 76 76 77 77 76 76 77 79 80 79 76 72 66 62 59 58 60 64 66 67 67 67 68 67 66 62 57 52 48 47 46 47 47 46 46 46 46 47 47 46
108 105 104 103 102 102 105 109 111 108 102 98 94 92 95 98 95 89 83 78 75 75 78 80 82 83 84 86 90 94 97 100 101 102 102 100 97 95 92 89 86 83 80 77 76 77 78 77 75 73 72 70 69 69 69 67 63 59 57 56 55 57 59 60 60 58 57 57 55 52 48 43 39 36 34 33 33 34 35 36 36 37 39 40 39
113 110 109 108 107 107 109 110 109 105 102 99 97 95 96 97 95 91 86 82 79 77 77 79 82 85 88 90 91 93 95 97 99 100 100 99 96 94 91 88 85 82 80 78 78 78 78 77 75 73 71 68 66 64 64 66 66 63 59 57 53 51 51 51 51 49 47 45 42 39 37 34 30 27 25 23 22 23 23 24 23 24 26 27 26
118 114 112 111 111 109 109 108 105 103 102 103 104 101 98 100 101 97 92 86 82 79 77 78 80 84 89 92 94 95 95 96 98 99 99 98 97 96 94 91 87 84 80 78 77 76 74 73 72 72 72 71 69 68 66 66 66 64 61 58 54 50 47 46 46 45 44 43 40 36 32 29 25 23 20 18 16 16 15 14 13 13 14 15 14
124 118 116 115 114 112 112 109 107 105 103 103 103 103 105 109 108 101 95 88 83 80 79 79 80 82 86 90 93 96 97 98 99 99 98 98 98 98 97 96 94 90 85 81 77 74 70 66 65 65 68 70 70 70 68 66 62 59 56 54 53 49 46 45 45 45 44 43 40 36 31 26 23 20 18 17 16 14 11 8 6 5 5 5 5
130 123 120 119 118 117 115 113 112 111 109 107 106 106 110 112 110 104 99 93 88 84 81 81 82 83 85 88 91 94 97 100 101 101 100 99 99 100 101 101 101 98 95 91 86 80 74 69 64 60 60 62 65 66 65 63 60 56 52 50 50 49 47 47 46 46 44 41 38 33 30 26 25 24 23 23 21 17 13 9 5 2 1 1 2
135 126 123 121 121 120 118 116 116 115 112 111 112 113 114 114 113 109 104 100 96 92 87 84 84 85 86 88 91 93 96 98 99 100 100 101 101 100 102 103 103 102 100 97 94 89 85 81 75 69 65 63 62 63 63 62 60 57 54 52 52 51 49 48 47 46 44 40 37 33 30 28 27 26 26 25 23 19 15 11 8 5 4 5 6
139 128 124 122 121 120 118 117 118 117 114 114 115 117 117 117 116 114 111 107 104 100 95 90 88 90 90 91 92 94 96 96 97 98 98 100 101 100 99 100 100 100 98 96 93 91 88 85 83 79 74 71 69 68 67 67 65 63 60 58 57 54 52 49 47 45 42 39 36 33 30 27 25 24 25 24 22 20 20 18 16 15 13 13 13
144 131 126 123 122 120 119 120 121 120 118 117 117 118 119 120 119 118 115 112 108 104 100 96 93 94 94 95 96 97 97 98 98 97 97 98 100 100 97 97 97 97 97 96 94 91 88 85 83 80 76 73 70 69 69 68 67 65 63 61 59 57 54 51 47 43 40 38 35 33 31 28 27 27 27 26 26 26 27 26 23 20 17 14 11
149 138 130 126 125 123 121 123 125 125 123 121 119 118 119 120 121 121 118 115 111 107 103 101 99 100 101 101 101 101 101 101 100 100 100 100 100 101 100 98 97 97 97 96 95 92 89 85 82 79 75 70 67 66 66 66 65 62 61 60 58 56 53 49 44 41 39 37 36 35 34 33 33 33 32 31 30 28 26 24 21 17 14 10 7
151 142 135 129 127 125 125 126 127 128 126 124 121 117 115 115 118 122 122 120 117 112 108 106 105 107 109 109 108 107 106 106 105 104 103 102 101 101 101 99 98 97 97 96 94 91 88 85 82 78 74 70 66 64 63 64 63 61 58 56 55 53 50 47 44 41 40 38 38 37 37 37 37 36 33 30 27 24 22 18 16 13 10 8 5
150 144 136 131 129 128 127 128 130 131 130 128 125 119 116 114 115 119 123 124 123 119 114 111 111 113 114 114 113 113 114 114 113 111 109 106 103 100 97 96 96 96 97 96 94 92 88 82 78 74 70 66 63 62 61 62 63 61 58 56 55 53 51 49 46 44 43 41 40 40 40 39 37 34 31 27 24 21 19 15 13 11 9 7 5
148 143 135 130 131 131 130 131 132 133 133 132 130 125 120 116 115 117 121 125 126 124 120 117 115 116 117 118 117 117 118 120 121 121 119 114 110 105 99 96 95 95 95 95 93 89 82 74 69 65 61 58 57 59 60 63 64 62 61 59 58 57 55 52 50 48 46 45 44 43 41 38 35 33 30 27 24 21 18 14 10 8 6 4 2
147 141 134 131 132 133 133 134 135 134 133 132 131 129 124 119 116 115 117 121 125 125 124 123 121 121 122 122 121 119 117 119 124 130 133 131 125 118 111 104 98 93 90 89 85 78 68 60 54 49 49 51 54 60 63 65 67 67 64 62 60 59 57 55 54 52 50 48 45 43 40 38 36 34 31 29 26 23 18 13 8 4 0 357 354
144 139 134 132 131 132 133 135 136 135 132 130 128 126 124 123 120 116 114 115 119 123 123 124 124 124 124 124 124 121 121 123 127 133 139 141 138 131 122 112 101 92 88 84 77 68 56 46 37 36 44 55 64 69 70 70 70 69 66 63 61 59 58 56 55 53 50 47 43 40 38 36 33 30 28 26 23 19 14 9 5 0 356 351 348
145 139 134 130 127 127 127 130 132 133 131 128 124 121 120 121 121 120 117 114 114 118 120 122 124 124 124 122 121 121 122 124 127 131 135 136 136 134 128 118 111 101 89 79 68 55 44 38 39 46 58 69 75 76 75 73 72 69 66 63 61 58 56 54 51 48 44 40 36 32 29 26 23 20 18 17 15 11 7 3 359 355 352 348 344
150 140 131 124 120 119 119 121 122 123 122 119 116 114 112 112 113 115 117 118 117 116 118 121 124 125 126 124 121 120 119 119 121 124 127 130 132 132 132 127 120 110 90 67 46 37 36 49 65 73 77 80 81 79 77 74 70 67 64 60 56 52 48 44 41 37 34 28 23 19 16 14 12 11 10 9 7 4 1 358 355 352 349 346 343
151 138 127 119 114 113 115 116 116 115 114 111 109 107 104 103 101 102 104 110 117 122 124 125 127 127 127 125 124 121 118 119 120 122 125 128 133 138 142 142 139 129 94 48 43 53 68 82 86 86 87 86 83 80 76 71 66 61 56 51 45 40 34 29 25 21 17 13 9 7 6 5 5 4 4 2 0 358 355 353 351 349 347 345 343
149 140 134 127 120 115 113 113 113 113 111 110 108 106 104 101 98 95 94 96 104 118 129 134 135 135 132 130 127 125 125 126 127 130 132 137 151 165 173 175 181 176 91 92 103 106 106 102 98 95 92 88 84 78 72 66 59 52 44 38 31 24 18 12 7 5 3 1 360 358 358 359 359 358 357 356 354 352 349 347 346 344 343 342 341
152 149 147 144 138 132 125 121 118 115 113 111 109 107 106 104 101 98 94 91 90 96 113 132 141 145 146 143 141 139 140 142 144 144 148 158 173 187 189 174 141 120 115 120 123 123 120 115 109 104 97 89 82 76 67 59 50 40 31 22 15 9 5 2 359 359 358 357 356 355 354 353 353 351 350 350 348 347 346 343 342 340 340 339 339
161 161 160 157 154 151 147 146 140 132 125 119 114 111 108 107 106 104 100 95 90 86 90 105 128 147 156 158 158 156 155 156 159 158 160 168 179 184 167 128 118 123 125 128 130 130 128 124 120 113 103 94 83 71 60 48 36 27 19 13 9 5 4 3 3 1 359 357 354 351 349 348 348 347 346 346 345 344 342 340 339 338 338 338 338
170 171 171 170 170 169 168 171 170 167 165 157 148 135 120 113 112 110 107 103 98 92 86 87 99 124 147 160 164 161 161 161 162 162 164 170 175 164 132 120 124 130 134 134 133 132 131 128 125 119 112 106 93 78 61 47 36 25 16 11 9 8 7 5 2 0 357 354 351 348 346 345 344 344 344 344 343 342 341 340 338 337 336 336 336
176 178 181 182 185 187 187 190 194 196 202 212 224 232 230 223 196 151 130 118 113 109 101 92 89 96 116 145 159 160 158 158 157 156 160 169 168 148 130 131 134 137 140 139 135 133 130 126 122 117 111 103 90 69 52 39 28 20 13 9 6 6 5 2 358 355 353 352 349 346 344 343 343 344 344 343 342 342 341 339 337 336 335 334 333
182 185 188 191 195 200 202 206 212 217 224 233 242 250 257 259 263 266 258 225 171 144 135 119 98 91 94 113 152 167 163 159 156 153 156 164 162 149 144 144 143 143 142 140 136 133 127 121 116 108 95 80 61 41 29 21 14 8 4 2 2 2 2 359 355 353 352 352 349 346 345 343 342 342 340 339 338 337 337 336 336 335 333 332 331
188 192 196 198 202 208 213 219 226 229 233 239 245 251 257 260 261 264 264 259 243 212 197 190 174 127 86 88 129 167 174 167 158 155 156 161 162 156 154 153 151 148 143 138 133 127 121 113 106 95 72 51 36 23 14 10 7 1 356 355 357 359 358 357 355 352 351 351 349 346 343 341 338 336 334 332 331 331 332 332 332 331 330 329 328
194 198 203 205 208 214 222 228 234 237 238 240 243 247 253 257 260 262 262 262 254 236 229 221 216 225 235 75 95 159 183 181 170 165 162 163 165 160 157 158 157 153 145 138 131 126 122 113 106 94 59 34 23 12 3 359 357 352 347 346 350 354 353 352 351 348 346 345 344 341 338 336 333 331 329 328 328 327 327 327 326 325 324 324 323
200 204 208 211 214 219 227 233 236 239 240 240 241 244 250 254 258 259 258 258 252 241 238 232 224 230 240 247 265 184 191 193 188 180 171 169 166 162 161 159 156 155 151 146 139 133 123 107 84 40 18 4 359 355 349 346 344 342 339 339 344 348 347 346 346 343 340 338 337 335 333 331 328 326 326 325 324 323 323 322 322 321 320 319 319
205 209 212 214 218 222 227 232 234 236 238 240 241 243 247 250 252 253 253 252 248 241 241 238 231 234 241 245 252 247 215 203 202 194 180 176 175 173 170 162 161 164 163 161 157 152 143 129 32 355 351 343 340 335 334 337 339 337 337 337 341 344 341 339 339 337 333 331 331 330 328 327 326 324 323 323 322 321 320 320 320 319 319 317 317
209 212 214 217 221 224 227 230 232 235 239 241 244 244 242 241 242 246 248 248 246 242 240 239 235 236 243 246 247 251 240 216 207 203 191 183 186 191 187 177 173 176 178 179 177 186 252 316 325 329 336 341 339 330 327 334 338 336 335 337 340 339 336 335 334 330 327 325 325 325 324 324 322 321 322 322 321 320 319 319 319 318 317 316 317
211 214 217 219 222 225 227 230 232 236 238 240 242 241 236 232 233 238 244 249 250 246 242 240 238 239 244 247 246 248 250 233 210 205 200 194 197 202 203 195 188 187 190 191 195 227 291 318 322 327 333 338 338 330 325 330 336 334 332 335 337 334 333 333 331 326 323 322 322 322 322 320 319 319 319 318 318 317 315 315 316 316 315 315 316
212 216 219 221 223 225 228 232 235 236 236 236 238 239 236 233 233 237 244 249 252 252 248 244 241 240 244 247 245 243 249 247 224 207 203 202 204 209 210 204 198 200 201 201 210 238 287 311 317 325 331 331 329 323 320 324 329 328 326 330 333 330 329 330 330 326 323 323 323 322 320 318 317 317 315 316 316 314 313 314 315 315 314 313 312
214 218 221 223 225 227 230 234 236 237 234 232 235 238 239 239 240 243 248 251 253 254 253 250 246 244 245 247 247 244 247 251 242 220 209 207 206 209 210 205 204 210 212 214 226 258 306 320 320 324 330 327 319 314 316 319 320 320 321 325 328 327 326 328 330 326 320 318 318 318 318 319 318 317 316 317 317 315 314 314 314 314 312 310 309
217 220 223 225 228 230 233 235 237 237 233 233 237 241 243 244 246 247 250 254 254 253 251 249 247 247 246 248 250 249 248 251 251 239 227 219 214 214 214 209 214 222 228 238 253 288 317 324 320 319 325 320 310 310 313 314 314 315 317 320 323 323 323 329 333 327 319 315 315 318 322 324 323 322 322 321 318 315 312 312 311 310 307 306 309
220 222 224 226 229 232 234 236 236 236 235 237 241 245 247 249 248 247 249 252 253 252 249 246 244 245 247 249 252 253 251 252 252 246 238 231 227 227 224 220 226 238 249 261 277 297 313 321 318 317 319 314 309 311 313 312 314 315 316 317 316 318 326 333 335 328 322 320 322 326 330 328 324 323 321 318 315 311 309 309 308 305 303 306 311
222 223 224 227 230 232 234 234 235 235 237 240 246 250 252 253 250 248 249 252 254 253 251 247 244 243 245 249 253 255 254 253 251 246 240 233 230 231 232 231 237 248 260 272 287 299 309 317 317 317 317 313 312 313 313 313 314 315 316 313 309 317 330 333 331 327 324 323 324 326 327 324 320 318 315 314 312 308 307 307 306 305 308 313 313
223 224 225 227 228 230 231 231 232 234 237 242 247 251 254 255 253 252 253 256 257 257 255 252 248 245 243 245 249 252 255 254 251 244 239 234 231 233 237 240 245 255 268 281 291 300 309 314 317 318 317 317 318 316 314 314 313 315 316 310 309 321 329 327 326 326 324 322 321 320 321 320 314 310 309 309 307 304 305 305 304 307 312 315 311
223 225 226 226 227 227 227 228 229 233 238 243 247 251 253 255 256 255 256 259 260 260 260 258 255 251 248 246 247 250 255 257 251 243 237 234 234 236 241 247 255 264 276 287 294 300 306 311 318 321 319 320 321 318 316 315 315 317 316 313 318 329 330 326 328 327 325 323 322 320 321 320 313 308 307 306 303 302 304 306 306 307 311 311 309
223 225 226 226 226 225 224 226 229 233 239 243 247 250 253 254 255 255 256 260 263 264 263 260 258 254 250 249 249 252 257 259 254 245 238 236 237 239 244 251 262 272 283 291 296 300 305 310 318 322 320 320 321 319 317 316 316 318 318 319 325 330 332 331 330 330 328 328 326 324 323 322 317 312 311 309 305 304 306 308 308 308 308 308 307
224 225 225 225 225 225 226 228 231 235 240 244 246 249 252 254 254 254 255 259 263 265 264 261 258 254 251 251 253 257 262 263 257 248 242 240 241 243 248 257 267 278 288 293 295 298 305 312 318 320 319 320 320 319 317 316 316 318 321 325 325 326 330 333 332 332 332 330 329 325 321 322 321 316 314 312 308 308 310 310 309 307 306 305 305
225 225 225 225 225 226 228 230 232 237 242 245 246 249 251 253 253 253 253 256 259 262 263 261 259 257 257 258 259 265 270 267 258 251 247 246 247 249 255 264 273 283 289 292 294 300 308 316 319 318 319 322 323 322 320 319 318 319 323 325 322 323 330 334 334 334 333 331 330 323 319 322 322 316 314 313 310 311 313 311 308 306 305 305 306
224 225 225 225 225 227 230 232 234 238 243 245 247 249 252 254 254 254 253 254 255 258 259 259 259 260 261 264 267 273 274 267 258 254 252 251 252 256 262 270 277 285 289 292 297 305 313 316 316 318 322 325 326 325 323 321 319 321 322 321 320 322 327 331 333 334 334 334 330 323 320 324 324 320 319 317 313 315 315 311 309 308 307 307 307
223 224 226 227 229 232 234 236 237 240 244 247 248 251 254 256 257 257 256 254 253 254 255 255 257 259 262 267 272 275 271 265 260 259 257 255 256 260 267 273 278 285 289 293 300 309 312 312 314 319 324 325 325 323 321 319 318 319 319 319 320 322 325 329 333 334 336 336 330 324 324 325 324 323 322 319 316 317 315 312 311 311 309 309 308
223 226 228 230 233 236 238 240 241 244 247 250 251 252 255 258 259 258 257 254 250 249 251 252 255 258 263 269 274 274 269 263 263 263 261 260 259 262 268 274 279 284 288 294 302 307 307 309 314 319 321 320 320 319 317 316 314 314 316 318 321 324 327 330 332 333 335 335 331 326 325 324 323 322 320 318 319 318 315 312 311 310 308 307 307
Height
5945 5945 5945 5945 5945 5945 5944 5944 5944 5944 5944 5944 5944 5943 5943 5943 5943 5942 5942 5942 5942 5942 5942 5942 5942 5942 5942 5942 5942 5942 5942 5942 5943 5943 5944 5944 5944 5943 5943 5943 5943 5943 5943 5943 5943 5943 5943 5943 5943 5942 5942 5942 5942 5942 5942 5942 5942 5942 5942 5942 5942 5942 5942 5941 5941 5941 5941 5940 5940 5940 5940 5940 5939 5939 5938 5938 5937 5937 5936 5935 5935 5934 5933 5933 5932
5945 5946 5946 5946 5946 5945 5945 5945 5945 5945 5945 5945 5945 5944 5944 5944 5943 5943 5943 5943 5943 5943 5943 5943 5943 5943 5943 5943 5943 5943 5943 5943 5944 5944 5945 5945 5945 5945 5945 5944 5944 5944 5944 5944 5944 5944 5944 5944 5944 5943 5943 5943 5943 5943 5943 5943 5943 5943 5943 5943 5943 5943 5943 5943 5942 5942 5942 5941 5941 5941 5941 5940 5940 5940 5939 5939 5938 5938 5937 5936 5936 5935 5934 5934 5933
5946 5946 5946 5946 5946 5946 5946 5946 5946 5946 5946 5945 5945 5945 5945 5944 5944 5944 5944 5944 5944 5944 5944 5944 5944 5944 5943 5943 5943 5943 5943 5944 5944 5945 5946 5946 5946 5946 5946 5946 5946 5946 5946 5946 5946 5945 5945 5945 5945 5945 5945 5945 5944 5944 5944 5944 5944 5944 5944 5944 5944 5944 5944 5944 5944 5943 5943 5942 5942 5942 5942 5941 5941 5941 5940 5940 5939 5938 5938 5937 5936 5936 5935 5934 5934
5947 5947 5947 5947 5947 5947 5947 5947 5947 5947 5946 5946 5946 5946 5946 5945 5945 5945 5945 5945 5945 5945 5945 5945 5944 5944 5944 5944 5944 5944 5944 5944 5945 5946 5946 5947 5947 5947 5947 5947 5947 5947 5947 5947 5947 5947 5946 5946 5946 5946 5946 5946 5946 5946 5946 5946 5946 5946 5945 5945 5945 5945 5945 5945 5944 5944 5944 5943 5943 5943 5943 5942 5942 5942 5941 5940 5940 5939 5939 5938 5937 5937 5936 5935 5935
5948 5948 5948 5948 5947 5947 5947 5948 5948 5948 5947 5947 5947 5947 5947 5947 5946 5946 5946 5946 5946 5945 5945 5945 5945 5944 5944 5944 5944 5944 5945 5945 5946 5946 5947 5947 5948 5948 5948 5948 5948 5949 5949 5948 5948 5948 5948 5947 5947 5947 5947 5947 5947 5947 5947 5947 5947 5947 5947 5946 5946 5946 5946 5945 5945 5945 5945 5945 5944 5944 5944 5943 5943 5942 5942 5941 5941 5940 5940 5939 5938 5938 5937 5936 5936
5948 5948 5948 5948 5948 5948 5948 5948 5949 5949 5948 5948 5949 5948 5948 5948 5948 5947 5947 5947 5947 5947 5946 5946 5946 5945 5945 5945 5945 5945 5945 5946 5946 5947 5948 5948 5948 5949 5949 5949 5950 5950 5950 5950 5949 5949 5949 5949 5948 5948 5948 5948 5948 5948 5948 5948 5948 5948 5947 5947 5947 5947 5947 5946 5946 5946 5946 5945 5945 5945 5945 5944 5944 5943 5942 5942 5941 5941 5940 5940 5939 5939 5938 5937 5936
5949 5949 5949 5949 5949 5949 5949 5949 5949 5949 5949 5950 5950 5949 5949 5949 5949 5949 5949 5948 5948 5948 5948 5948 5947 5946 5946 5946 5946 5946 5946 5946 5947 5948 5948 5949 5949 5950 5950 5950 5951 5951 5951 5951 5951 5950 5950 5950 5950 5949 5949 5949 5949 5949 5949 5949 5949 5949 5948 5948 5948 5948 5948 5947 5947 5947 5946 5946 5946 5945 5945 5945 5944 5944 5943 5942 5942 5942 5941 5940 5940 5939 5938 5938 5937
5950 5950 5950 5950 5950 5950 5950 5950 5950 5950 5950 5950 5951 5951 5950 5950 5950 5950 5950 5950 5949 5949 5949 5949 5948 5948 5947 5947 5947 5947 5947 5947 5948 5948 5949 5950 5950 5951 5951 5952 5952 5952 5952 5952 5952 5952 5951 5951 5951 5951 5951 5951 5950 5950 5950 5950 5950 5950 5949 5949 5949 5949 5949 5948 5948 5948 5947 5947 5947 5946 5946 5945 5945 5944 5944 5943 5942 5942 5941 5941 5940 5939 5939 5938 5937
5951 5951 5951 5951 5951 5951 5951 5951 5951 5952 5951 5951 5951 5951 5951 5951 5951 5951 5951 5951 5951 5950 5950 5950 5950 5949 5949 5948 5948 5948 5948 5948 5949 5949 5950 5951 5951 5952 5952 5953 5953 5953 5953 5953 5953 5953 5953 5953 5952 5952 5952 5952 5952 5952 5952 5951 5951 5951 5951 5951 5950 5950 5949 5949 5949 5949 5948 5948 5947 5947 5946 5946 5946 5945 5944 5944 5943 5942 5942 5941 5940 5939 5939 5938 5937
5952 5952 5952 5952 5952 5952 5952 5953 5953 5953 5952 5952 5952 5952 5952 5952 5952 5952 5952 5952 5952 5952 5952 5952 5951 5951 5950 5950 5950 5949 5949 5950 5950 5950 5951 5952 5952 5953 5953 5954 5954 5954 5954 5954 5954 5954 5954 5954 5954 5954 5954 5954 5953 5953 5953 5953 5953 5952 5952 5952 5951 5951 5951 5950 5950 5949 5949 5949 5948 5948 5947 5946 5946 5945 5945 5944 5943 5942 5942 5941 5940 5939 5939 5938 5937
5953 5953 5953 5953 5953 5953 5953 5953 5954 5953 5953 5953 5953 5954 5953 5953 5953 5953 5953 5954 5954 5954 5953 5953 5953 5952 5951 5951 5951 5951 5951 5951 5951 5952 5952 5953 5953 5954 5954 5955 5955 5955 5955 5955 5955 5955 5955 5955 5955 5955 5955 5955 5955 5955 5954 5954 5954 5953 5953 5953 5952 5952 5952 5951 5951 5950 5950 5949 5949 5948 5948 5947 5946 5946 5945 5944 5944 5943 5942 5941 5940 5939 5939 5938 5937
5954 5953 5953 5953 5954 5954 5954 5954 5954 5954 5954 5954 5955 5955 5955 5955 5955 5955 5955 5955 5955 5955 5955 5954 5954 5953 5953 5953 5953 5953 5953 5953 5953 5953 5953 5954 5954 5955 5955 5956 5956 5956 5957 5957 5957 5957 5957 5957 5957 5957 5956 5956 5956 5956 5955 5955 5954 5954 5954 5954 5953 5953 5953 5952 5952 5951 5950 5950 5949 5949 5948 5947 5947 5946 5945 5944 5944 5943 5942 5941 5940 5940 5939 5938 5937
5954 5954 5954 5954 5954 5954 5954 5954 5955 5955 5955 5955 5955 5955 5956 5956 5956 5956 5956 5956 5956 5956 5956 5956 5955 5954 5954 5954 5954 5955 5955 5955 5955 5955 5955 5955 5955 5955 5956 5956 5957 5957 5957 5957 5958 5958 5958 5958 5958 5958 5958 5957 5957 5957 5956 5956 5956 5955 5955 5955 5954 5954 5953 5953 5952 5952 5951 5950 5950 5949 5948 5947 5947 5946 5945 5945 5944 5943 5942 5942 5941 5940 5939 5938 5937
5955 5955 5955 5955 5955 5955 5955 5955 5956 5956 5956 5956 5956 5957 5957 5957 5958 5957 5957 5957 5957 5958 5958 5957 5956 5956 5956 5955 5956 5956 5956 5956 5956 5956 5956 5956 5956 5957 5957 5957 5957 5957 5958 5958 5958 5958 5958 5959 5959 5959 5958 5958 5958 5958 5957 5957 5956 5956 5956 5955 5955 5954 5954 5953 5953 5952 5951 5951 5950 5949 5949 5948 5947 5947 5946 5945 5944 5944 5943 5942 5942 5941 5940 5939 5938
5956 5955 5955 5955 5956 5956 5956 5956 5957 5957 5957 5957 5958 5958 5958 5958 5958 5959 5958 5958 5959 5959 5959 5958 5958 5958 5957 5957 5957 5957 5957 5957 5957 5957 5957 5957 5958 5958 5958 5958 5958 5958 5959 5959 5959 5959 5959 5959 5959 5959 5959 5959 5959 5958 5958 5957 5957 5957 5956 5956 5956 5955 5955 5954 5954 5953 5952 5952 5951 5950 5950 5949 5948 5947 5947 5946 5945 5944 5944 5943 5942 5942 5941 5940 5939
5957 5956 5956 5956 5956 5956 5956 5957 5957 5958 5958 5958 5959 5959 5959 5959 5959 5959 5959 5960 5960 5960 5960 5960 5959 5959 5959 5959 5959 5959 5959 5959 5958 5958 5958 5958 5959 5960 5960 5959 5959 5959 5960 5960 5960 5960 5960 5960 5960 5960 5960 5960 5960 5959 5959 5958 5958 5957 5957 5957 5956 5956 5956 5955 5955 5954 5953 5953 5952 5951 5950 5950 5949 5948 5947 5947 5946 5945 5944 5944 5943 5942 5941 5940 5939
5957 5957 5956 5956 5956 5957 5957 5957 5958 5959 5959 5959 5960 5960 5960 5960 5960 5960 5960 5960 5960 5961 5960 5960 5961 5961 5960 5960 5960 5960 5960 5960 5960 5960 5960 5960 5960 5961 5961 5961 5961 5960 5960 5961 5961 5961 5961 5961 5961 5961 5961 5961 5960 5960 5960 5959 5958 5958 5958 5958 5957 5957 5956 5956 5955 5955 5954 5953 5953 5952 5951 5951 5950 5949 5948 5948 5947 5946 5945 5944 5943 5943 5942 5941 5940
5957 5957 5957 5957 5957 5957 5957 5958 5959 5959 5960 5960 5961 5961 5961 5961 5960 5960 5960 5961 5961 5961 5961 5961 5961 5962 5961 5961 5962 5961 5961 5961 5961 5961 5961 5961 5961 5962 5962 5962 5962 5962 5961 5962 5962 5962 5962 5962 5961 5961 5961 5961 5961 5961 5960 5960 5959 5959 5959 5958 5958 5958 5957 5957 5956 5956 5955 5954 5954 5953 5952 5952 5951 5950 5950 5949 5948 5947 5946 5945 5944 5943 5942 5941 5940
5957 5957 5957 5958 5958 5958 5958 5958 5959 5960 5960 5961 5961 5961 5961 5961 5961 5961 5961 5961 5961 5961 5961 5961 5962 5962 5962 5962 5963 5963 5963 5963 5963 5963 5963 5963 5963 5963 5963 5963 5963 5963 5963 5963 5963 5963 5963 5963 5962 5962 5962 5962 5962 5962 5961 5960 5960 5960 5960 5959 5959 5958 5958 5957 5957 5956 5956 5955 5955 5954 5953 5953 5952 5951 5950 5950 5949 5948 5947 5946 5945 5944 5942 5941 5940
5957 5957 5958 5958 5958 5958 5958 5959 5960 5960 5961 5961 5962 5962 5962 5962 5962 5962 5961 5962 5962 5962 5962 5962 5962 5963 5963 5963 5963 5963 5964 5964 5964 5964 5964 5964 5964 5964 5964 5964 5964 5964 5964 5964 5964 5964 5964 5963 5963 5963 5963 5963 5963 5962 5962 5961 5960 5960 5960 5960 5960 5959 5958 5958 5957 5957 5956 5956 5955 5955 5954 5953 5953 5952 5951 5950 5949 5948 5948 5947 5946 5944 5943 5942 5940
5957 5957 5958 5958 5959 5959 5959 5959 5960 5961 5961 5962 5962 5963 5963 5963 5963 5962 5962 5962 5962 5962 5962 5963 5963 5963 5963 5963 5963 5964 5964 5965 5965 5965 5965 5965 5966 5966 5965 5965 5965 5965 5965 5965 5964 5964 5964 5964 5964 5964 5964 5963 5963 5963 5962 5962 5961 5961 5961 5961 5960 5960 5959 5959 5958 5958 5957 5957 5956 5955 5955 5954 5953 5952 5951 5951 5950 5949 5948 5947 5946 5945 5943 5942 5941
5957 5957 5958 5958 5959 5959 5959 5959 5960 5961 5961 5962 5962 5963 5963 5963 5963 5963 5963 5963 5963 5963 5963 5963 5963 5964 5964 5964 5964 5964 5964 5965 5965 5966 5966 5966 5966 5966 5966 5966 5966 5966 5965 5965 5965 5965 5965 5965 5965 5964 5964 5964 5964 5963 5963 5962 5962 5962 5962 5961 5961 5960 5960 5959 5959 5958 5958 5957 5957 5956 5955 5954 5954 5953 5952 5951 5950 5949 5948 5947 5946 5945 5943 5942 5941
5957 5957 5958 5958 5959 5959 5959 5960 5960 5961 5962 5962 5963 5963 5963 5964 5964 5964 5963 5963 5963 5963 5963 5963 5963 5964 5964 5964 5964 5964 5965 5965 5966 5966 5967 5967 5967 5967 5967 5966 5966 5966 5966 5966 5966 5966 5966 5966 5965 5965 5965 5964 5964 5964 5963 5963 5963 5963 5962 5962 5962 5961 5961 5960 5960 5959 5958 5958 5957 5956 5956 5955 5954 5953 5952 5951 5950 5949 5948 5947 5946 5944 5943 5941 5940
5957 5957 5958 5958 5959 5959 5960 5960 5961 5962 5962 5963 5963 5963 5964 5964 5964 5964 5964 5964 5964 5964 5964 5964 5964 5964 5964 5964 5965 5965 5965 5966 5966 5967 5967 5967 5967 5967 5967 5967 5967 5967 5966 5966 5966 5966 5966 5966 5966 5965 5965 5965 5965 5964 5964 5964 5964 5964 5963 5963 5963 5962 5962 5961 5960 5959 5959 5958 5958 5957 5956 5955 5954 5954 5952 5951 5950 5949 5948 5947 5945 5944 5943 5941 5939
5957 5958 5959 5959 5959 5960 5960 5961 5961 5962 5963 5963 5963 5964 5964 5964 5965 5965 5965 5965 5964 5964 5964 5964 5964 5965 5965 5965 5965 5965 5966 5966 5966 5967 5967 5967 5967 5967 5967 5967 5967 5967 5967 5967 5967 5967 5967 5966 5966 5966 5966 5965 5965 5965 5965 5965 5964 5964 5964 5964 5963 5963 5962 5961 5961 5960 5959 5959 5958 5957 5957 5956 5955 5954 5953 5951 5950 5949 5948 5946 5945 5944 5942 5941 5939
5958 5959 5960 5960 5961 5961 5961 5962 5962 5963 5963 5964 5964 5964 5964 5965 5965 5965 5965 5965 5965 5965 5965 5965 5965 5965 5965 5965 5965 5966 5966 5966 5967 5967 5967 5967 5967 5967 5967 5967 5967 5967 5967 5967 5967 5967 5967 5967 5966 5966 5966 5966 5966 5966 5965 5965 5965 5965 5964 5964 5963 5963 5962 5962 5961 5961 5960 5959 5959 5958 5957 5956 5955 5954 5952 5951 5950 5949 5947 5946 5945 5943 5942 5940 5939
5957 5959 5960 5961 5962 5962 5963 5963 5964 5964 5964 5965 5965 5965 5965 5965 5966 5966 5966 5966 5966 5966 5966 5966 5966 5966 5966 5966 5966 5966 5966 5966 5967 5967 5967 5967 5967 5967 5967 5967 5967 5967 5967 5967 5967 5967 5967 5967 5967 5967 5967 5967 5966 5966 5966 5966 5965 5965 5964 5964 5964 5963 5963 5962 5962 5961 5960 5960 5959 5958 5957 5956 5954 5953 5952 5951 5950 5948 5947 5945 5944 5943 5941 5940 5938
5957 5958 5959 5960 5962 5962 5963 5964 5965 5965 5965 5966 5966 5966 5966 5966 5966 5966 5966 5966 5967 5967 5966 5966 5966 5966 5966 5966 5966 5966 5966 5967 5967 5967 5967 5967 5967 5967 5967 5967 5966 5966 5966 5967 5967 5967 5967 5967 5967 5967 5967 5967 5967 5966 5966 5965 5965 5965 5964 5964 5964 5963 5963 5962 5962 5961 5960 5960 5959 5958 5956 5955 5954 5953 5951 5950 5949 5948 5946 5945 5943 5942 5940 5938 5937
5957 5958 5959 5960 5961 5962 5963 5964 5965 5965 5966 5966 5967 5967 5966 5966 5966 5967 5967 5967 5967 5967 5967 5966 5966 5966 5966 5966 5966 5966 5966 5966 5967 5967 5967 5967 5966 5966 5966 5966 5966 5966 5966 5966 5967 5967 5967 5967 5968 5967 5967 5967 5967 5966 5966 5965 5965 5965 5964 5964 5964 5963 5963 5962 5962 5961 5960 5959 5958 5957 5956 5955 5953 5952 5951 5950 5948 5947 5945 5944 5942 5940 5939 5937 5935
5956 5957 5958 5960 5961 5962 5963 5963 5964 5965 5965 5966 5967 5967 5967 5967 5967 5967 5967 5967 5967 5967 5967 5967 5966 5966 5966 5966 5966 5966 5966 5966 5966 5966 5966 5966 5966 5966 5966 5966 5966 5966 5966 5966 5967 5967 5967 5967 5967 5967 5967 5967 5967 5966 5966 5966 5966 5965 5965 5964 5964 5964 5963 5963 5962 5961 5960 5959 5958 5957 5955 5954 5953 5952 5950 5949 5947 5946 5944 5942 5940 5939 5937 5935 5933
5954 5956 5957 5959 5960 5961 5962 5963 5963 5964 5965 5965 5966 5967 5967 5967 5967 5967 5967 5967 5967 5967 5967 5967 5966 5966 5966 5966 5966 5966 5966 5966 5966 5966 5966 5966 5966 5966 5966 5966 5966 5966 5966 5967 5967 5967 5967 5967 5967 5967 5967 5967 5967 5967 5966 5966 5966 5966 5965 5965 5964 5964 5963 5962 5962 5961 5959 5958 5957 5956 5955 5953 5952 5951 5949 5947 5946 5944 5942 5941 5939 5937 5935 5933 5932
5953 5955 5956 5958 5959 5960 5961 5962 5963 5963 5964 5964 5965 5966 5966 5967 5967 5967 5967 5967 5967 5967 5967 5966 5966 5966 5965 5965 5965 5965 5965 5966 5966 5966 5966 5966 5966 5966 5966 5966 5966 5966 5967 5967 5967 5967 5967 5967 5967 5967 5967 5967 5967 5967 5966 5966 5966 5965 5965 5964 5964 5963 5962 5962 5960 5959 5958 5957 5956 5955 5953 5952 5950 5949 5947 5945 5943 5942 5940 5939 5937 5935 5933 5931 5929
5952 5953 5955 5956 5957 5959 5960 5961 5962 5962 5963 5964 5964 5964 5965 5965 5966 5966 5967 5967 5967 5967 5966 5966 5966 5965 5965 5965 5965 5965 5965 5965 5966 5966 5966 5966 5966 5966 5966 5966 5966 5966 5967 5967 5967 5967 5967 5967 5967 5967 5967 5966 5966 5966 5966 5965 5965 5964 5964 5963 5963 5962 5961 5960 5959 5957 5956 5955 5954 5953 5951 5949 5948 5946 5944 5942 5941 5939 5938 5936 5935 5933 5931 5929 5927
5951 5952 5953 5954 5956 5957 5958 5959 5960 5961 5962 5962 5963 5963 5963 5964 5965 5965 5966 5966 5966 5966 5966 5965 5965 5965 5965 5965 5965 5965 5965 5965 5965 5966 5966 5966 5966 5966 5966 5966 5966 5966 5966 5966 5966 5966 5966 5966 5966 5966 5966 5966 5966 5966 5965 5965 5964 5963 5963 5962 5961 5961 5960 5958 5957 5956 5954 5953 5952 5950 5949 5947 5945 5944 5942 5940 5938 5937 5935 5933 5931 5929 5927 5925 5923
5949 5950 5951 5953 5954 5955 5956 5957 5958 5959 5960 5961 5961 5962 5962 5963 5963 5964 5965 5965 5965 5965 5965 5965 5964 5964 5964 5964 5964 5964 5964 5964 5964 5965 5965 5965 5965 5965 5965 5965 5966 5966 5966 5966 5966 5966 5966 5966 5966 5966 5966 5965 5965 5965 5964 5964 5963 5962 5961 5960 5959 5958 5957 5956 5955 5953 5952 5950 5949 5947 5946 5944 5943 5941 5939 5938 5936 5934 5932 5930 5928 5925 5923 5921 5920
5947 5948 5950 5951 5952 5954 5955 5956 5956 5957 5958 5959 5960 5960 5961 5961 5962 5963 5963 5964 5964 5964 5964 5963 5963 5963 5963 5963 5964 5964 5964 5964 5964 5964 5964 5965 5965 5964 5965 5965 5965 5965 5965 5965 5965 5965 5966 5966 5966 5965 5965 5965 5964 5964 5963 5963 5962 5961 5960 5959 5958 5957 5955 5954 5953 5951 5949 5948 5946 5945 5943 5941 5939 5938 5936 5934 5933 5931 5928 5926 5924 5922 5920 5918 5915
5945 5946 5948 5949 5950 5952 5953 5954 5955 5955 5956 5957 5958 5959 5959 5960 5960 5961 5961 5962 5962 5962 5962 5962 5962 5962 5962 5962 5963 5963 5963 5963 5963 5963 5964 5964 5964 5963 5963 5964 5964 5964 5964 5965 5965 5965 5965 5965 5965 5965 5964 5964 5963 5962 5961 5961 5960 5959 5958 5957 5956 5955 5954 5953 5951 5949 5947 5945 5944 5942 5940 5938 5936 5934 5932 5930 5928 5926 5924 5922 5921 5919 5916 5914 5911
5943 5944 5946 5947 5948 5949 5950 5952 5953 5954 5955 5956 5957 5957 5958 5959 5959 5959 5960 5960 5960 5961 5961 5961 5961 5961 5961 5961 5961 5961 5961 5962 5962 5962 5963 5963 5963 5963 5963 5963 5963 5964 5964 5964 5964 5964 5964 5964 5963 5963 5962 5962 5961 5960 5958 5958 5958 5957 5956 5956 5955 5954 5953 5951 5949 5947 5945 5944 5942 5940 5938 5935 5933 5931 5928 5926 5923 5921 5918 5917 5916 5914 5912 5910 5908
5941 5942 5944 5945 5946 5947 5948 5950 5951 5952 5953 5954 5955 5956 5956 5957 5958 5958 5958 5958 5958 5959 5959 5959 5959 5959 5959 5960 5960 5960 5960 5960 5961 5961 5962 5962 5962 5962 5962 5962 5962 5963 5963 5963 5963 5963 5963 5963 5963 5962 5961 5960 5959 5958 5957 5956 5955 5955 5954 5954 5954 5953 5951 5950 5948 5945 5943 5941 5940 5938 5936 5932 5930 5928 5925 5922 5919 5915 5912 5911 5910 5909 5907 5905 5904
5939 5940 5942 5943 5944 5945 5947 5948 5949 5951 5952 5953 5954 5954 5955 5955 5956 5956 5956 5956 5957 5957 5957 5958 5958 5958 5958 5958 5959 5959 5959 5959 5959 5960 5961 5961 5961 5961 5961 5961 5962 5962 5962 5962 5962 5963 5963 5962 5962 5961 5961 5960 5958 5957 5956 5955 5954 5953 5952 5952 5952 5951 5950 5948 5947 5943 5940 5938 5937 5935 5933 5930 5927 5924 5921 5919 5916 5911 5907 5905 5904 5903 5900 5899 5898
5937 5938 5940 5941 5942 5944 5945 5946 5947 5949 5950 5951 5952 5952 5953 5954 5954 5955 5955 5955 5955 5955 5956 5956 5956 5956 5956 5957 5957 5957 5957 5958 5958 5958 5959 5959 5960 5960 5960 5960 5960 5961 5961 5961 5961 5962 5961 5961 5961 5960 5960 5959 5957 5955 5954 5953 5952 5951 5950 5949 5949 5948 5947 5947 5945 5941 5935 5932 5931 5931 5930 5926 5922 5920 5917 5915 5912 5907 5903 5899 5898 5896 5892 5891 5892
5935 5937 5938 5939 5941 5942 5943 5944 5946 5947 5948 5949 5949 5950 5951 5952 5953 5953 5953 5953 5953 5954 5954 5954 5955 5955 5955 5955 5955 5956 5956 5956 5956 5957 5957 5958 5958 5958 5958 5959 5959 5959 5959 5959 5960 5960 5960 5960 5959 5959 5958 5957 5955 5954 5952 5951 5949 5948 5947 5946 5945 5945 5944 5943 5942 5938 5932 5927 5924 5925 5924 5920 5916 5914 5912 5910 5907 5903 5899 5895 5891 5886 5883 5885 5888
5933 5935 5936 5938 5939 5940 5941 5942 5944 5945 5946 5946 5947 5948 5949 5950 5951 5951 5951 5952 5952 5952 5952 5952 5953 5953 5953 5954 5954 5954 5955 5955 5955 5955 5956 5956 5957 5957 5957 5958 5958 5958 5958 5958 5958 5958 5959 5959 5958 5957 5956 5955 5953 5951 5949 5948 5946 5944 5943 5941 5941 5943 5942 5940 5938 5935 5930 5925 5921 5920 5920 5917 5912 5910 5908 5905 5901 5897 5894 5891 5884 5876 5877 5882 5882
5931 5932 5934 5936 5937 5938 5939 5941 5942 5943 5943 5944 5945 5946 5947 5947 5948 5949 5949 5950 5950 5950 5950 5950 5951 5951 5952 5952 5952 5953 5953 5953 5953 5954 5954 5955 5955 5955 5956 5956 5957 5957 5957 5957 5957 5957 5957 5957 5956 5955 5953 5952 5951 5949 5947 5945 5942 5941 5938 5934 5936 5943 5942 5937 5934 5932 5928 5924 5920 5917 5918 5916 5910 5905 5904 5901 5897 5892 5889 5887 5880 5872 5873 5875 5872
5928 5930 5932 5934 5935 5936 5938 5939 5940 5940 5941 5942 5943 5943 5944 5945 5946 5946 5947 5947 5948 5948 5948 5948 5948 5949 5949 5950 5950 5951 5951 5951 5952 5952 5953 5953 5953 5954 5954 5955 5955 5955 5955 5955 5955 5955 5955 5954 5954 5953 5951 5949 5948 5946 5944 5941 5938 5937 5934 5929 5932 5939 5938 5932 5930 5928 5924 5920 5915 5911 5912 5912 5906 5900 5899 5897 5892 5888 5886 5883 5877 5871 5870 5867 5863
5927 5929 5930 5931 5933 5934 5935 5936 5937 5938 5938 5939 5940 5941 5942 5942 5943 5944 5944 5945 5945 5945 5945 5945 5946 5946 5947 5947 5948 5948 5949 5949 5950 5950 5951 5951 5952 5952 5952 5953 5953 5953 5953 5953 5952 5952 5952 5952 5952 5951 5949 5947 5945 5943 5940 5937 5935 5934 5931 5927 5927 5931 5931 5928 5926 5924 5920 5916 5910 5903 5902 5904 5900 5893 5892 5891 5886 5883 5882 5880 5874 5868 5865 5862 5858
5924 5926 5927 5929 5930 5931 5932 5934 5935 5936 5936 5936 5937 5938 5939 5940 5941 5941 5942 5942 5943 5943 5943 5943 5943 5944 5944 5945 5945 5946 5946 5947 5947 5948 5948 5949 5950 5950 5950 5950 5950 5950 5950 5950 5950 5950 5950 5949 5949 5948 5946 5944 5942 5940 5937 5935 5933 5931 5928 5926 5924 5923 5923 5922 5921 5919 5916 5912 5907 5898 5893 5895 5894 5888 5886 5885 5880 5878 5878 5876 5871 5866 5861 5858 5854
5922 5923 5925 5926 5927 5928 5930 5931 5932 5933 5933 5934 5935 5936 5936 5937 5938 5939 5940 5940 5940 5940 5940 5940 5941 5941 5941 5942 5943 5943 5944 5944 5944 5945 5945 5946 5947 5948 5948 5948 5947 5947 5947 5947 5947 5947 5947 5946 5945 5944 5943 5941 5939 5937 5934 5931 5929 5928 5926 5925 5921 5918 5917 5916 5914 5914 5912 5909 5905 5897 5889 5890 5889 5884 5882 5880 5876 5874 5874 5871 5867 5863 5858 5854 5851
5919 5920 5922 5923 5924 5925 5927 5928 5930 5930 5930 5931 5932 5933 5933 5934 5935 5937 5938 5938 5938 5938 5938 5938 5938 5938 5939 5939 5940 5941 5941 5942 5942 5942 5943 5944 5945 5945 5945 5945 5945 5945 5945 5944 5944 5943 5943 5942 5942 5941 5939 5937 5935 5933 5930 5927 5925 5924 5923 5922 5919 5915 5913 5912 5911 5910 5908 5905 5900 5892 5885 5884 5882 5878 5876 5874 5871 5870 5869 5866 5862 5859 5855 5851 5847
5916 5917 5918 5920 5921 5923 5924 5926 5927 5928 5928 5928 5929 5930 5930 5931 5933 5934 5935 5935 5936 5936 5936 5935 5935 5936 5936 5937 5937 5938 5939 5939 5939 5940 5940 5941 5942 5943 5942 5942 5942 5942 5942 5941 5941 5941 5940 5939 5938 5937 5936 5934 5932 5930 5928 5925 5922 5920 5918 5917 5914 5911 5909 5908 5906 5904 5904 5901 5894 5886 5882 5880 5877 5873 5870 5867 5866 5866 5863 5860 5857 5854 5850 5846 5842
5913 5915 5916 5918 5919 5921 5922 5923 5924 5925 5925 5926 5927 5928 5928 5928 5930 5932 5932 5933 5934 5933 5933 5933 5933 5933 5934 5934 5935 5936 5936 5936 5936 5937 5938 5939 5940 5940 5939 5940 5940 5940 5939 5938 5938 5938 5937 5937 5936 5934 5933 5932 5930 5928 5926 5924 5921 5919 5916 5913 5911 5908 5905 5903 5900 5898 5897 5896 5890 5883 5879 5876 5873 5869 5865 5860 5860 5861 5858 5854 5852 5848 5844 5841 5837